Вернуться в каталог

USA 198

АктивенВоенныеHEO
NORAD 32378·PAYLOAD·🇺🇸 United States

Запущен Dec 10, 2007 с Cape Canaveral Space Force Station

Loading…

Ближайшие Пролёты (ближайшие 24 часа)

TLE

СвежийSource: Mike McCants

Эпоха: Sep 14, 2026, 20:32 UTC

1 32378U 07060A   26257.85565942  .00000597  00000-0  00000-0 0    06
2 32378  63.9470 113.2307 7228419 262.0577  18.0034  2.00596936  4575

Отслеживайте USA 198 в реальном времени с AllMySat

Download on the App Store